Location: Sun City Center
(27.6996°N, 82.3528°W)
Time: 06:50:57
(UTC-04:00)

Cosmos 2084 Rocket - Visible Passes

Search period start: 25 July 2017 00:00
Search period end: 04 August 2017 00:00
Orbit: 502 x 682 km, 62.8° (Epoch: 25 July)

Date Brightness Start Highest point End Pass type
(mag) Time Alt. Az. Time Alt. Az. Time Alt. Az.
25 Jul 6.4 06:19:03 10° SE 06:20:33 12° ESE 06:22:01 10° E visible
29 Jul 6.2 05:13:06 10° SE 05:14:59 13° ESE 05:16:50 10° E visible
30 Jul 5.4 05:19:50 11° SSE 05:23:20 25° ESE 05:26:47 10° ENE visible
31 Jul 4.1 05:28:51 19° S 05:31:43 50° ESE 05:35:45 10° NE visible
01 Aug 3.3 05:37:45 26° SW 05:40:08 77° WNW 05:44:17 10° NNE visible
02 Aug 6.1 04:10:00 13° ESE 04:10:00 13° ESE 04:11:35 10° E visible
02 Aug 4.1 05:46:35 23° WSW 05:48:37 37° WNW 05:52:28 10° N visible
03 Aug 5.4 04:18:45 24° E 04:18:45 24° E 04:21:19 10° ENE visible
03 Aug 5.0 05:55:19 15° W 05:57:10 20° NW 06:00:14 10° N visible
